Sheldon, IA

11:42 AM CDT on September 20, 2017 (GMT -0500)
Sheldon Municipal

Weather History for KSHL - May, 2013

Change the Weather History Date:

Thursday, May 2, 2013

  Actual Average Record
Temperature  
Mean Temperature 40 °F -  
Max Temperature 46 °F 66 °F 89 °F (1959)
Min Temperature 33 °F 39 °F 22 °F (1961)
Degree Days  
Heating Degree Days 26    
Moisture  
Dew Point 30 °F    
Average Humidity 71    
Maximum Humidity 87    
Minimum Humidity 50    
Precipitation  
Precipitation 0.00 in - - ()
Sea Level Pressure  
Sea Level Pressure 30.49 in    
Wind  
Wind Speed 20 mph (North)    
Max Wind Speed 29 mph    
Max Gust Speed 36 mph    
Visibility 10 miles    
Events      
Averages and records for this station are not official NWS values.
T = Trace of Precipitation, MM = Missing Value Source: NWS Daily Summary

Daily Weather History Graph

Daily Weather History Graph

Search for Another Location

Airport or City:

Trip Planner

Search our weather history database for the weather conditions in past years. The results will help you decide how hot, cold, wet, or windy it might be!

Date:

Astronomy

May. 02, 2013 Rise Set
Actual Time 6:14 AM CDT 8:26 PM CDT
Civil Twilight 5:43 AM CDT 8:57 PM CDT
Nautical Twilight 5:05 AM CDT 9:36 PM CDT
Astronomical Twilight 4:22 AM CDT 10:19 PM CDT
Moon 2:14 AM CDT (5/2) 1:05 PM CDT (5/2)
Length of Visible Light 15h 14m
Length of Day
14h 11m
Waning Gibbous, 47% of the Moon is Illuminated
May 2
Waning Gibbous
May 9
New
May 17
First Quarter
May 24
Full
May 31
Last Quarter

Hourly Weather History & Observations

Time (CDT) Temp. Windchill Dew Point Humidity Pressure Visibility Wind Dir Wind Speed Gust Speed Precip Events Conditions
12:15 AM 35.6 °F 26.2 °F 32.0 °F 87% 30.45 in 10.0 mi North 15.0 mph - N/A   Overcast
12:35 AM 35.6 °F 25.2 °F 32.0 °F 87% 30.45 in 10.0 mi North 18.4 mph - N/A   Overcast
12:55 AM 35.6 °F 25.5 °F 32.0 °F 87% 30.47 in 10.0 mi North 17.3 mph - N/A   Overcast
1:15 AM 35.6 °F 25.2 °F 32.0 °F 87% 30.47 in 10.0 mi North 18.4 mph - N/A   Overcast
1:35 AM 35.6 °F 25.2 °F 32.0 °F 87% 30.50 in 10.0 mi North 18.4 mph 24.2 mph N/A   Overcast
1:55 AM 35.6 °F 24.8 °F 32.0 °F 87% 30.48 in 10.0 mi North 19.6 mph - N/A   Overcast
2:15 AM 35.6 °F 23.7 °F 32.0 °F 87% 30.47 in 10.0 mi North 24.2 mph 31.1 mph N/A   Overcast
2:35 AM 35.6 °F 24.0 °F 30.2 °F 81% 30.46 in 10.0 mi North 23.0 mph 29.9 mph N/A   Overcast
2:55 AM 33.8 °F 22.2 °F 30.2 °F 87% 30.48 in 10.0 mi North 20.7 mph - N/A   Overcast
3:15 AM 33.8 °F 21.3 °F 30.2 °F 87% 30.48 in 10.0 mi North 24.2 mph - N/A   Overcast
3:35 AM 33.8 °F 20.8 °F 30.2 °F 87% 30.47 in 10.0 mi NNE 26.5 mph - N/A   Overcast
3:55 AM 33.8 °F 21.6 °F 28.4 °F 81% 30.48 in 10.0 mi NNE 23.0 mph - N/A   Overcast
4:15 AM 35.6 °F 23.4 °F 26.6 °F 70% 30.49 in 10.0 mi North 25.3 mph - N/A   Overcast
4:35 AM 35.6 °F 23.7 °F 26.6 °F 70% 30.48 in 10.0 mi North 24.2 mph 32.2 mph N/A   Overcast
4:55 AM 35.6 °F 23.2 °F 26.6 °F 70% 30.49 in 10.0 mi NNE 26.5 mph 33.4 mph N/A   Overcast
5:15 AM 33.8 °F 21.3 °F 26.6 °F 75% 30.49 in 10.0 mi NNE 24.2 mph 29.9 mph N/A   Overcast
5:35 AM 33.8 °F 21.0 °F 26.6 °F 75% 30.49 in 10.0 mi North 25.3 mph 31.1 mph N/A   Overcast
5:55 AM 33.8 °F 21.6 °F 26.6 °F 75% 30.49 in 10.0 mi NNE 23.0 mph 31.1 mph N/A   Overcast
6:15 AM 33.8 °F 22.2 °F 26.6 °F 75% 30.52 in 10.0 mi North 20.7 mph 27.6 mph N/A   Overcast
6:35 AM 33.8 °F 21.6 °F 26.6 °F 75% 30.52 in 10.0 mi North 23.0 mph - N/A   Overcast
6:55 AM 33.8 °F 22.8 °F 26.6 °F 75% 30.52 in 10.0 mi North 18.4 mph 27.6 mph N/A   Overcast
7:15 AM 33.8 °F 22.5 °F 26.6 °F 75% 30.53 in 10.0 mi North 19.6 mph - N/A   Mostly Cloudy
7:35 AM 33.8 °F 22.5 °F 26.6 °F 75% 30.54 in 10.0 mi North 19.6 mph - N/A   Mostly Cloudy
7:55 AM 33.8 °F 22.5 °F 26.6 °F 75% 30.54 in 10.0 mi North 19.6 mph 25.3 mph N/A   Overcast
8:15 AM 33.8 °F 22.5 °F 28.4 °F 81% 30.55 in 10.0 mi North 19.6 mph - N/A   Overcast
8:35 AM 33.8 °F 22.8 °F 28.4 °F 81% 30.56 in 10.0 mi North 18.4 mph - N/A   Mostly Cloudy
8:55 AM 33.8 °F 22.8 °F 28.4 °F 81% 30.56 in 10.0 mi North 18.4 mph 25.3 mph N/A   Partly Cloudy
9:15 AM 35.6 °F 24.8 °F 28.4 °F 75% 30.56 in 10.0 mi North 19.6 mph - N/A   Partly Cloudy
9:35 AM 35.6 °F 24.8 °F 28.4 °F 75% 30.56 in 10.0 mi North 19.6 mph 26.5 mph N/A   Partly Cloudy
9:55 AM 35.6 °F 24.8 °F 30.2 °F 81% 30.56 in 10.0 mi North 19.6 mph - N/A   Clear
10:15 AM 35.6 °F 24.2 °F 28.4 °F 75% 30.55 in 10.0 mi North 21.9 mph 29.9 mph N/A   Clear
10:35 AM 37.4 °F 26.9 °F 30.2 °F 75% 30.56 in 10.0 mi North 20.7 mph 27.6 mph N/A   Partly Cloudy
10:55 AM 37.4 °F 26.6 °F 32.0 °F 81% 30.56 in 10.0 mi North 21.9 mph 29.9 mph N/A   Clear
11:15 AM 37.4 °F 26.1 °F 32.0 °F 81% 30.56 in 10.0 mi North 24.2 mph - N/A   Mostly Cloudy
11:35 AM 39.2 °F 28.7 °F 32.0 °F 75% 30.55 in 10.0 mi North 23.0 mph 32.2 mph N/A   Partly Cloudy
11:55 AM 39.2 °F 28.5 °F 30.2 °F 70% 30.55 in 10.0 mi North 24.2 mph 31.1 mph N/A   Clear
12:15 PM 39.2 °F 28.5 °F 32.0 °F 75% 30.55 in 10.0 mi North 24.2 mph 31.1 mph N/A   Clear
12:35 PM 41.0 °F 30.0 °F 32.0 °F 70% 30.54 in 10.0 mi North 28.8 mph - N/A   Partly Cloudy
12:55 PM 41.0 °F 30.7 °F 32.0 °F 70% 30.54 in 10.0 mi North 25.3 mph 34.5 mph N/A   Clear
1:15 PM 42.8 °F 33.3 °F 33.8 °F 70% 30.53 in 10.0 mi North 24.2 mph 32.2 mph N/A   Partly Cloudy
1:35 PM 42.8 °F 32.9 °F 32.0 °F 66% 30.52 in 10.0 mi North 26.5 mph 35.7 mph N/A   Partly Cloudy
1:55 PM 44.6 °F 35.5 °F 32.0 °F 61% 30.51 in 10.0 mi North 25.3 mph 34.5 mph N/A   Clear
2:15 PM 44.6 °F 35.3 °F 32.0 °F 61% 30.50 in 10.0 mi North 26.5 mph 33.4 mph N/A   Partly Cloudy
2:35 PM 44.6 °F 35.5 °F 32.0 °F 61% 30.50 in 10.0 mi North 25.3 mph 35.7 mph N/A   Partly Cloudy
2:55 PM 46.4 °F 37.7 °F 32.0 °F 57% 30.49 in 10.0 mi North 26.5 mph 35.7 mph N/A   Clear
3:15 PM 46.4 °F 38.1 °F 30.2 °F 53% 30.48 in 10.0 mi North 24.2 mph 35.7 mph N/A   Clear
3:35 PM 46.4 °F 37.9 °F 30.2 °F 53% 30.47 in 10.0 mi North 25.3 mph 32.2 mph N/A   Clear
3:55 PM 46.4 °F 37.7 °F 30.2 °F 53% 30.46 in 10.0 mi North 26.5 mph 35.7 mph N/A   Clear
4:15 PM 46.4 °F 38.1 °F 28.4 °F 50% 30.45 in 10.0 mi North 24.2 mph 31.1 mph N/A   Clear
4:35 PM 46.4 °F 39.0 °F 28.4 °F 50% 30.45 in 10.0 mi North 19.6 mph 33.4 mph N/A   Clear
4:55 PM 46.4 °F 38.3 °F 28.4 °F 50% 30.45 in 10.0 mi North 23.0 mph 32.2 mph N/A   Clear
5:15 PM 46.4 °F 38.1 °F 28.4 °F 50% 30.44 in 10.0 mi North 24.2 mph 32.2 mph N/A   Clear
5:35 PM 46.4 °F 38.7 °F 28.4 °F 50% 30.44 in 10.0 mi North 20.7 mph 32.2 mph N/A   Clear
5:55 PM 46.4 °F 37.9 °F 28.4 °F 50% 30.43 in 10.0 mi North 25.3 mph - N/A   Clear
6:15 PM 46.4 °F 38.7 °F 30.2 °F 53% 30.43 in 10.0 mi North 20.7 mph 27.6 mph N/A   Clear
6:35 PM 46.4 °F 38.5 °F 28.4 °F 50% 30.43 in 10.0 mi North 21.9 mph 29.9 mph N/A   Clear
6:55 PM 44.6 °F 35.9 °F 28.4 °F 53% 30.43 in 10.0 mi North 23.0 mph 28.8 mph N/A   Clear
7:15 PM 44.6 °F 35.9 °F 28.4 °F 53% 30.42 in 10.0 mi North 23.0 mph - N/A   Clear
7:35 PM 44.6 °F 36.6 °F 28.4 °F 53% 30.43 in 10.0 mi North 19.6 mph 25.3 mph N/A   Clear
7:55 PM 42.8 °F 34.3 °F 28.4 °F 57% 30.43 in 10.0 mi North 19.6 mph - N/A   Clear
8:15 PM 41.0 °F 33.1 °F 28.4 °F 61% 30.43 in 10.0 mi North 15.0 mph - N/A   Clear
8:35 PM 41.0 °F 33.1 °F 30.2 °F 65% 30.43 in 10.0 mi North 15.0 mph - N/A   Clear
8:55 PM 39.2 °F 31.6 °F 30.2 °F 70% 30.44 in 10.0 mi North 12.7 mph - N/A   Clear
9:15 PM 37.4 °F 29.3 °F 30.2 °F 75% 30.44 in 10.0 mi North 12.7 mph - N/A   Clear
9:35 PM 37.4 °F 29.8 °F 30.2 °F 75% 30.44 in 10.0 mi North 11.5 mph - N/A   Partly Cloudy
9:55 PM 35.6 °F 27.5 °F 30.2 °F 81% 30.44 in 10.0 mi North 11.5 mph - N/A   Clear
10:15 PM 35.6 °F 28.0 °F 30.2 °F 81% 30.44 in 10.0 mi North 10.4 mph - N/A   Clear
10:35 PM 35.6 °F 27.5 °F 30.2 °F 81% 30.43 in 10.0 mi North 11.5 mph - N/A   Clear
10:55 PM 35.6 °F 27.1 °F 28.4 °F 75% 30.43 in 10.0 mi North 12.7 mph - N/A   Clear
11:15 PM 35.6 °F 27.5 °F 28.4 °F 75% 30.43 in 10.0 mi North 11.5 mph - N/A   Clear
11:35 PM 33.8 °F 24.8 °F 28.4 °F 81% 30.41 in 10.0 mi North 12.7 mph - N/A   Clear
11:55 PM 33.8 °F 25.8 °F 28.4 °F 81% 30.41 in 10.0 mi North 10.4 mph - N/A   Clear